| time (UTC) | temp F | wind direction | speed MPH | gust MPH | rain 1hr in | rain 24hr in | rain mn in | humidity % | barometer mb |
| 20260904015319 | 84 | 180 | 0.0 | 3.0 | 0.00 | 0.00 | 0.00 | 73 | 1016.1 |
| 20260904014827 | 84 | 206 | 0.0 | 2.0 | 0.00 | 0.00 | 0.00 | 72 | 1016.1 |
| 20260904013737 | 84 | 0 | 0.0 | 3.0 | 0.00 | 0.00 | 0.00 | 71 | 1016.1 |
| 20260904013301 | 84 | 210 | 0.0 | 3.0 | 0.00 | 0.00 | 0.00 | 71 | 1016.1 |
| 20260904012956 | 84 | 0 | 0.0 | 1.0 | 0.00 | 0.00 | 0.00 | 71 | 1016.1 |
| 20260904012320 | 85 | 0 | 0.0 | 1.0 | 0.00 | 0.00 | 0.00 | 70 | 1016.0 |
| 20260904011945 | 85 | 0 | 0.0 | 1.0 | 0.00 | 0.00 | 0.00 | 70 | 1016.0 |
| 20260904011426 | 85 | 0 | 0.0 | 2.0 | 0.00 | 0.00 | 0.00 | 70 | 1015.9 |
| 20260904010719 | 85 | 0 | 0.0 | 2.0 | 0.00 | 0.00 | 0.00 | 70 | 1015.9 |
| 20260904010323 | 86 | 211 | 0.0 | 2.0 | 0.00 | 0.00 | 0.00 | 69 | 1015.9 |
| 20260904005928 | 86 | 0 | 0.0 | 1.0 | 0.00 | 0.00 | 0.00 | 68 | 1015.9 |
| 20260904005731 | 86 | 0 | 0.0 | 1.0 | 0.00 | 0.00 | 0.00 | 68 | 1015.9 |
| 20260904004637 | 86 | 0 | 0.0 | 2.0 | 0.00 | 0.00 | 0.00 | 68 | 1015.7 |
| 20260904004230 | 87 | 0 | 0.0 | 2.0 | 0.00 | 0.00 | 0.00 | 67 | 1015.6 |
| 20260904003424 | 87 | 0 | 0.0 | 2.0 | 0.00 | 0.00 | 0.00 | 66 | 1015.7 |
| 20260904002526 | 88 | 0 | 0.0 | 3.0 | 0.00 | 0.00 | 0.00 | 66 | 1015.5 |
| 20260904001941 | 88 | 211 | 0.0 | 3.0 | 0.00 | 0.00 | 0.00 | 66 | 1015.4 |
| 20260904000535 | 89 | 0 | 0.0 | 3.0 | 0.00 | 0.00 | 0.00 | 66 | 1015.5 |
| 20260903235928 | 90 | 0 | 0.0 | 2.0 | 0.00 | 0.00 | 0.00 | 65 | 1015.4 |
| 20260903235028 | 90 | 0 | 0.0 | 2.0 | 0.00 | 0.00 | 0.00 | 64 | 1015.4 |
| 20260903233828 | 90 | 0 | 0.0 | 3.0 | 0.00 | 0.00 | 0.00 | 63 | 1015.3 |
| 20260903233756 | 90 | 0 | 0.0 | 3.0 | 0.00 | 0.00 | 0.00 | 63 | 1015.3 |
| 20260903233318 | 91 | 0 | 0.0 | 3.0 | 0.00 | 0.00 | 0.00 | 62 | 1015.4 |
| 20260903233244 | 91 | 0 | 0.0 | 3.0 | 0.00 | 0.00 | 0.00 | 62 | 1015.4 |
| 20260903232527 | 91 | 0 | 1.0 | 3.0 | 0.00 | 0.00 | 0.00 | 61 | 1015.3 |
| 20260903232347 | 91 | 0 | 0.0 | 2.0 | 0.00 | 0.00 | 0.00 | 61 | 1015.3 |
| 20260903231949 | 92 | 256 | 0.0 | 3.0 | 0.00 | 0.00 | 0.00 | 60 | 1015.3 |
| 20260903231156 | 92 | 0 | 0.0 | 3.0 | 0.00 | 0.00 | 0.00 | 60 | 1015.3 |
| 20260903230924 | 92 | 0 | 0.0 | 3.0 | 0.00 | 0.00 | 0.00 | 60 | 1015.2 |
| 20260903230043 | 92 | 0 | 1.0 | 4.0 | 0.00 | 0.00 | 0.00 | 64 | 1015.2 |
| 20260903225854 | 92 | 0 | 1.0 | 4.0 | 0.00 | 0.00 | 0.00 | 64 | 1015.2 |
| 20260903225459 | 93 | 252 | 0.0 | 4.0 | 0.00 | 0.00 | 0.00 | 58 | 1015.2 |
| 20260903224637 | 93 | 0 | 1.0 | 4.0 | 0.00 | 0.00 | 0.00 | 58 | 1015.3 |
| 20260903223038 | 94 | 0 | 2.0 | 8.0 | 0.00 | 0.00 | 0.00 | 57 | 1015.0 |
| 20260903215352 | 95 | 246 | 2.0 | 5.0 | 0.00 | 0.00 | 0.00 | 59 | 1014.8 |
| 20260903213930 | 95 | 224 | 3.0 | 8.0 | 0.00 | 0.00 | 0.00 | 53 | 1014.9 |
| 20260903212554 | 96 | 236 | 4.0 | 9.0 | 0.00 | 0.00 | 0.00 | 51 | 1014.9 |
| 20260903212031 | 96 | 242 | 3.0 | 12.0 | 0.00 | 0.00 | 0.00 | 51 | 1014.9 |
| 20260903212018 | 97 | 242 | 3.0 | 12.0 | 0.00 | 0.00 | 0.00 | 55 | 1014.9 |
| 20260903205833 | 98 | 214 | 2.0 | 7.0 | 0.00 | 0.00 | 0.00 | 49 | 1015.1 |
| 20260903204458 | 99 | 250 | 2.0 | 7.0 | 0.00 | 0.00 | 0.00 | 53 | 1015.1 |
| 20260903203911 | 99 | 236 | 3.0 | 7.0 | 0.00 | 0.00 | 0.00 | 48 | 1015.2 |
| 20260903203435 | 99 | 262 | 3.0 | 7.0 | 0.00 | 0.00 | 0.00 | 48 | 1015.2 |
| 20260903202628 | 98 | 248 | 2.0 | 8.0 | 0.00 | 0.00 | 0.00 | 49 | 1015.3 |
| 20260903202500 | 98 | 236 | 2.0 | 8.0 | 0.00 | 0.00 | 0.00 | 49 | 1015.3 |
| 20260903201944 | 98 | 244 | 2.0 | 6.0 | 0.00 | 0.00 | 0.00 | 49 | 1015.3 |
| 20260903201424 | 98 | 262 | 2.0 | 6.0 | 0.00 | 0.00 | 0.00 | 50 | 1015.4 |
| 20260903200924 | 99 | 286 | 2.0 | 7.0 | 0.00 | 0.00 | 0.00 | 53 | 1015.5 |
| 20260903192720 | 99 | 281 | 2.0 | 7.0 | 0.00 | 0.00 | 0.00 | 46 | 1016.0 |
| 20260903192330 | 99 | 295 | 2.0 | 7.0 | 0.00 | 0.00 | 0.00 | 50 | 1016.1 |
| 20260903191722 | 98 | 250 | 2.0 | 9.0 | 0.00 | 0.00 | 0.00 | 50 | 1016.2 |
| 20260903191219 | 98 | 298 | 3.0 | 9.0 | 0.00 | 0.00 | 0.00 | 49 | 1016.2 |
| 20260903190622 | 98 | 282 | 1.0 | 7.0 | 0.00 | 0.00 | 0.00 | 49 | 1016.3 |
| 20260903190521 | 98 | 244 | 2.0 | 7.0 | 0.00 | 0.00 | 0.00 | 53 | 1016.3 |
| 20260903185902 | 98 | 248 | 3.0 | 7.0 | 0.00 | 0.00 | 0.00 | 49 | 1016.3 |
| 20260903185502 | 98 | 263 | 2.0 | 7.0 | 0.00 | 0.00 | 0.00 | 50 | 1016.4 |
| 20260903183600 | 97 | 252 | 2.0 | 9.0 | 0.00 | 0.00 | 0.00 | 51 | 1016.3 |
| 20260903182526 | 97 | 215 | 3.0 | 11.0 | 0.00 | 0.00 | 0.00 | 55 | 1016.4 |
| 20260903175858 | 96 | 290 | 3.0 | 9.0 | 0.00 | 0.00 | 0.00 | 52 | 1016.5 |
| 20260903174951 | 96 | 262 | 2.0 | 12.0 | 0.00 | 0.00 | 0.00 | 54 | 1016.6 |
| 20260903174319 | 96 | 257 | 2.0 | 8.0 | 0.00 | 0.00 | 0.00 | 56 | 1016.6 |
| 20260903173839 | 95 | 286 | 3.0 | 8.0 | 0.00 | 0.00 | 0.00 | 57 | 1016.7 |
| 20260903173748 | 95 | 286 | 3.0 | 8.0 | 0.00 | 0.00 | 0.00 | 57 | 1016.7 |
| 20260903173706 | 95 | 286 | 3.0 | 8.0 | 0.00 | 0.00 | 0.00 | 57 | 1016.7 |
| 20260903172926 | 95 | 213 | 2.0 | 7.0 | 0.00 | 0.00 | 0.00 | 57 | 1016.8 |
| 20260903172226 | 95 | 237 | 2.0 | 7.0 | 0.00 | 0.00 | 0.00 | 57 | 1016.8 |
| 20260903171419 | 95 | 266 | 3.0 | 8.0 | 0.00 | 0.00 | 0.00 | 58 | 1017.0 |
| 20260903165941 | 95 | 242 | 2.0 | 7.0 | 0.00 | 0.00 | 0.00 | 58 | 1017.3 |
| 20260903165247 | 94 | 248 | 1.0 | 7.0 | 0.00 | 0.00 | 0.00 | 59 | 1017.3 |
| 20260903163234 | 94 | 247 | 2.0 | 6.0 | 0.00 | 0.00 | 0.00 | 61 | 1017.5 |
| 20260903161030 | 93 | 208 | 2.0 | 7.0 | 0.00 | 0.00 | 0.00 | 64 | 1017.6 |
| 20260903154326 | 92 | 257 | 1.0 | 8.0 | 0.00 | 0.00 | 0.00 | 62 | 1017.6 |
| 20260903153035 | 91 | 268 | 3.0 | 8.0 | 0.00 | 0.00 | 0.00 | 62 | 1017.5 |
| 20260903151413 | 91 | 279 | 1.0 | 6.0 | 0.00 | 0.00 | 0.00 | 63 | 1017.4 |
| 20260903150419 | 90 | 241 | 2.0 | 6.0 | 0.00 | 0.00 | 0.00 | 64 | 1017.4 |
| 20260903143916 | 88 | 0 | 2.0 | 7.0 | 0.00 | 0.00 | 0.00 | 66 | 1017.4 |
| 20260903142559 | 88 | 245 | 1.0 | 4.0 | 0.00 | 0.00 | 0.00 | 67 | 1017.5 |
| 20260903142116 | 87 | 244 | 2.0 | 4.0 | 0.00 | 0.00 | 0.00 | 67 | 1017.5 |
| 20260903142018 | 87 | 236 | 1.0 | 4.0 | 0.00 | 0.00 | 0.00 | 70 | 1017.5 |
| 20260903141527 | 86 | 238 | 1.0 | 4.0 | 0.00 | 0.00 | 0.00 | 70 | 1017.5 |
| 20260903141326 | 86 | 238 | 1.0 | 4.0 | 0.00 | 0.00 | 0.00 | 70 | 1017.5 |
| 20260903135925 | 85 | 227 | 1.0 | 6.0 | 0.00 | 0.00 | 0.00 | 70 | 1017.6 |
| 20260903135141 | 85 | 213 | 2.0 | 4.0 | 0.00 | 0.00 | 0.00 | 76 | 1017.7 |
| 20260903134951 | 84 | 246 | 1.0 | 4.0 | 0.00 | 0.00 | 0.00 | 72 | 1017.7 |
| 20260903134423 | 83 | 202 | 2.0 | 5.0 | 0.00 | 0.00 | 0.00 | 73 | 1017.7 |
| 20260903133720 | 83 | 223 | 1.0 | 7.0 | 0.00 | 0.00 | 0.00 | 73 | 1017.8 |
| 20260903133159 | 82 | 216 | 2.0 | 7.0 | 0.00 | 0.00 | 0.00 | 73 | 1017.8 |
| 20260903131657 | 81 | 217 | 2.0 | 5.0 | 0.00 | 0.00 | 0.00 | 74 | 1017.8 |
| 20260903125535 | 80 | 215 | 2.0 | 6.0 | 0.00 | 0.00 | 0.00 | 76 | 1017.9 |
| 20260903125436 | 80 | 194 | 2.0 | 6.0 | 0.00 | 0.00 | 0.00 | 77 | 1018.0 |
| 20260903125019 | 79 | 155 | 1.0 | 6.0 | 0.00 | 0.00 | 0.00 | 78 | 1018.0 |
| 20260903124502 | 79 | 209 | 2.0 | 5.0 | 0.00 | 0.00 | 0.00 | 78 | 1018.0 |
| 20260903124320 | 79 | 209 | 2.0 | 5.0 | 0.00 | 0.00 | 0.00 | 78 | 1018.0 |
| 20260903123728 | 78 | 198 | 2.0 | 4.0 | 0.00 | 0.00 | 0.00 | 79 | 1017.9 |
| 20260903122725 | 77 | 201 | 1.0 | 4.0 | 0.00 | 0.00 | 0.00 | 80 | 1017.9 |
| 20260903121620 | 77 | 184 | 1.0 | 3.0 | 0.00 | 0.00 | 0.00 | 81 | 1017.9 |
| 20260903121439 | 77 | 184 | 1.0 | 3.0 | 0.00 | 0.00 | 0.00 | 81 | 1017.9 |
| 20260903121402 | 77 | 184 | 1.0 | 3.0 | 0.00 | 0.00 | 0.00 | 81 | 1017.9 |
| 20260903114324 | 76 | 186 | 0.0 | 2.0 | 0.00 | 0.00 | 0.00 | 82 | 1017.7 |
| 20260903113657 | 76 | 185 | 0.0 | 2.0 | 0.00 | 0.00 | 0.00 | 82 | 1017.6 |
| 20260903113321 | 76 | 0 | 0.0 | 2.0 | 0.00 | 0.00 | 0.00 | 82 | 1017.4 |
| 20260903112831 | 76 | 0 | 0.0 | 3.0 | 0.00 | 0.00 | 0.00 | 81 | 1017.5 |
| 20260903111252 | 76 | 218 | 0.0 | 3.0 | 0.00 | 0.00 | 0.00 | 81 | 1017.3 |
| 20260903110922 | 76 | 219 | 0.0 | 3.0 | 0.00 | 0.00 | 0.00 | 81 | 1017.3 |
| 20260903110134 | 76 | 219 | 1.0 | 3.0 | 0.00 | 0.00 | 0.00 | 81 | 1017.3 |
| 20260903105435 | 76 | 0 | 1.0 | 3.0 | 0.00 | 0.00 | 0.00 | 80 | 1017.2 |
| 20260903104844 | 76 | 221 | 0.0 | 3.0 | 0.00 | 0.00 | 0.00 | 80 | 1017.2 |
| 20260903103259 | 76 | 185 | 1.0 | 3.0 | 0.00 | 0.00 | 0.00 | 80 | 1017.1 |
| 20260903095647 | 77 | 173 | 1.0 | 4.0 | 0.00 | 0.00 | 0.00 | 79 | 1017.0 |
| 20260903095448 | 77 | 191 | 1.0 | 4.0 | 0.00 | 0.00 | 0.00 | 79 | 1017.0 |
| 20260903093120 | 78 | 213 | 1.0 | 6.0 | 0.00 | 0.00 | 0.00 | 78 | 1016.8 |
| 20260903092020 | 78 | 184 | 1.0 | 3.0 | 0.00 | 0.00 | 0.00 | 78 | 1017.0 |
| 20260903090729 | 78 | 212 | 1.0 | 4.0 | 0.00 | 0.00 | 0.00 | 77 | 1017.0 |
| 20260903090419 | 78 | 199 | 0.0 | 4.0 | 0.00 | 0.00 | 0.00 | 77 | 1017.1 |
| 20260903090252 | 78 | 199 | 0.0 | 4.0 | 0.00 | 0.00 | 0.00 | 77 | 1017.1 |
| 20260903085959 | 78 | 204 | 1.0 | 4.0 | 0.00 | 0.00 | 0.00 | 77 | 1017.0 |
| 20260903084254 | 78 | 207 | 1.0 | 4.0 | 0.00 | 0.00 | 0.00 | 77 | 1017.0 |
| 20260903083925 | 78 | 205 | 1.0 | 5.0 | 0.00 | 0.00 | 0.00 | 77 | 1017.0 |
| 20260903083339 | 78 | 202 | 2.0 | 6.0 | 0.00 | 0.00 | 0.00 | 77 | 1017.0 |
| 20260903083246 | 78 | 202 | 2.0 | 6.0 | 0.00 | 0.00 | 0.00 | 77 | 1017.0 |
| 20260903082645 | 79 | 187 | 2.0 | 6.0 | 0.00 | 0.00 | 0.00 | 77 | 1016.9 |
| 20260903082438 | 79 | 212 | 1.0 | 5.0 | 0.00 | 0.00 | 0.00 | 77 | 1016.9 |
| 20260903081815 | 79 | 215 | 2.0 | 5.0 | 0.00 | 0.00 | 0.00 | 77 | 1016.8 |
| 20260903081538 | 79 | 219 | 0.0 | 4.0 | 0.00 | 0.00 | 0.00 | 77 | 1016.9 |
| 20260903080921 | 79 | 219 | 1.0 | 5.0 | 0.00 | 0.00 | 0.00 | 77 | 1016.8 |
| 20260903075937 | 79 | 0 | 1.0 | 5.0 | 0.00 | 0.00 | 0.00 | 76 | 1016.8 |
| 20260903075516 | 79 | 198 | 1.0 | 5.0 | 0.00 | 0.00 | 0.00 | 76 | 1016.8 |
| 20260903072059 | 79 | 215 | 1.0 | 6.0 | 0.00 | 0.00 | 0.00 | 76 | 1016.7 |
| 20260903071931 | 79 | 210 | 3.0 | 5.0 | 0.00 | 0.00 | 0.00 | 76 | 1016.7 |
| 20260903071003 | 79 | 205 | 1.0 | 4.0 | 0.00 | 0.00 | 0.00 | 76 | 1016.8 |
| 20260903070720 | 79 | 205 | 1.0 | 4.0 | 0.00 | 0.00 | 0.00 | 76 | 1016.8 |
| 20260903065740 | 79 | 206 | 1.0 | 4.0 | 0.00 | 0.00 | 0.00 | 76 | 1016.8 |
| 20260903065219 | 79 | 190 | 1.0 | 4.0 | 0.00 | 0.00 | 0.00 | 76 | 1016.9 |
| 20260903064655 | 80 | 200 | 1.0 | 3.0 | 0.00 | 0.00 | 0.00 | 76 | 1016.8 |
| 20260903064535 | 80 | 203 | 1.0 | 3.0 | 0.00 | 0.00 | 0.00 | 76 | 1016.8 |
| 20260903063529 | 80 | 201 | 1.0 | 3.0 | 0.00 | 0.00 | 0.00 | 76 | 1016.9 |
| 20260903063026 | 80 | 208 | 1.0 | 4.0 | 0.00 | 0.00 | 0.00 | 75 | 1016.8 |
| 20260903061719 | 80 | 201 | 1.0 | 3.0 | 0.00 | 0.00 | 0.00 | 75 | 1016.8 |
| 20260903061350 | 80 | 211 | 0.0 | 3.0 | 0.00 | 0.00 | 0.00 | 75 | 1016.9 |
| 20260903061306 | 80 | 211 | 0.0 | 3.0 | 0.00 | 0.00 | 0.00 | 75 | 1016.9 |
| 20260903060425 | 80 | 212 | 1.0 | 4.0 | 0.00 | 0.00 | 0.00 | 75 | 1016.8 |
| 20260903055133 | 80 | 197 | 1.0 | 3.0 | 0.00 | 0.00 | 0.00 | 74 | 1016.8 |
| 20260903055019 | 80 | 192 | 1.0 | 4.0 | 0.00 | 0.00 | 0.00 | 74 | 1016.8 |
| 20260903052443 | 80 | 0 | 1.0 | 4.0 | 0.00 | 0.00 | 0.00 | 75 | 1016.7 |
| 20260903051131 | 80 | 180 | 1.0 | 4.0 | 0.00 | 0.00 | 0.00 | 75 | 1016.5 |
| 20260903050824 | 80 | 178 | 1.0 | 4.0 | 0.00 | 0.00 | 0.00 | 75 | 1016.6 |
| 20260903050334 | 80 | 189 | 1.0 | 4.0 | 0.00 | 0.00 | 0.00 | 75 | 1016.5 |
| 20260903045027 | 81 | 190 | 1.0 | 3.0 | 0.00 | 0.00 | 0.00 | 75 | 1016.4 |
| 20260903044937 | 81 | 179 | 1.0 | 3.0 | 0.00 | 0.00 | 0.00 | 75 | 1016.5 |
| 20260903044434 | 81 | 180 | 1.0 | 3.0 | 0.00 | 0.00 | 0.00 | 75 | 1016.5 |
| 20260903042740 | 81 | 0 | 1.0 | 4.0 | 0.00 | 0.00 | 0.00 | 75 | 1016.4 |
| 20260903042333 | 81 | 190 | 1.0 | 4.0 | 0.00 | 0.00 | 0.00 | 75 | 1016.4 |
| 20260903041926 | 81 | 192 | 1.0 | 4.0 | 0.00 | 0.00 | 0.00 | 75 | 1016.4 |
| 20260903041219 | 81 | 184 | 1.0 | 4.0 | 0.00 | 0.00 | 0.00 | 75 | 1016.4 |
| 20260903040917 | 81 | 182 | 1.0 | 4.0 | 0.00 | 0.00 | 0.00 | 75 | 1016.4 |
| 20260903035117 | 81 | 202 | 1.0 | 3.0 | 0.00 | 0.00 | 0.00 | 75 | 1016.5 |
| 20260903034730 | 82 | 209 | 1.0 | 3.0 | 0.00 | 0.00 | 0.00 | 75 | 1016.5 |
| 20260903034024 | 82 | 212 | 0.0 | 3.0 | 0.00 | 0.00 | 0.00 | 75 | 1016.5 |
| 20260903033130 | 82 | 213 | 1.0 | 3.0 | 0.00 | 0.00 | 0.00 | 75 | 1016.5 |
| 20260903032925 | 82 | 184 | 0.0 | 4.0 | 0.00 | 0.00 | 0.00 | 75 | 1016.6 |
| 20260903032251 | 82 | 180 | 0.0 | 4.0 | 0.00 | 0.00 | 0.00 | 75 | 1016.6 |
| 20260903031424 | 82 | 200 | 1.0 | 5.0 | 0.00 | 0.00 | 0.00 | 75 | 1016.7 |
| 20260903031005 | 82 | 178 | 1.0 | 3.0 | 0.00 | 0.00 | 0.00 | 75 | 1016.7 |
| 20260903025926 | 82 | 182 | 0.0 | 3.0 | 0.00 | 0.00 | 0.00 | 75 | 1016.8 |
| 20260903025150 | 82 | 178 | 1.0 | 4.0 | 0.00 | 0.00 | 0.00 | 74 | 1016.7 |
| 20260903024827 | 82 | 0 | 1.0 | 4.0 | 0.00 | 0.00 | 0.00 | 74 | 1016.8 |
| 20260903023952 | 83 | 173 | 1.0 | 3.0 | 0.00 | 0.00 | 0.00 | 73 | 1016.7 |
| 20260903023206 | 83 | 178 | 1.0 | 4.0 | 0.00 | 0.00 | 0.00 | 73 | 1016.7 |
| 20260903022919 | 83 | 182 | 1.0 | 4.0 | 0.00 | 0.00 | 0.00 | 73 | 1016.7 |
| 20260903022434 | 84 | 198 | 1.0 | 3.0 | 0.00 | 0.00 | 0.00 | 72 | 1016.7 |
| 20260903021730 | 84 | 199 | 1.0 | 3.0 | 0.00 | 0.00 | 0.00 | 72 | 1016.7 |
| 20260903021326 | 84 | 0 | 0.0 | 5.0 | 0.00 | 0.00 | 0.00 | 71 | 1016.7 |
| 20260903020517 | 84 | 183 | 0.0 | 3.0 | 0.00 | 0.00 | 0.00 | 71 | 1016.7 |
| 20260903020444 | 84 | 183 | 0.0 | 3.0 | 0.00 | 0.00 | 0.00 | 71 | 1016.7 |
| 20260903020257 | 84 | 183 | 0.0 | 3.0 | 0.00 | 0.00 | 0.00 | 71 | 1016.7 |